Weather past 2 weeks in Cayenne, French Guiana

Now
84 °F

Partly sunny.


Feels Like: 91 °F
Forecast: 76 / 82 °F
Wind: 14 mph from Northeast

Location: Cayenne / Rochambeau

Current Time: Feb 1, 2015 at 1:41:55 PM

Latest Report: Feb 1, 2015 at 1:00 PM


Visibility: N/A

Pressure: 29.92 "Hg

Humidity: 70%

Dew point: 73 °F

Location of CayenneLocation

Historic Weather in Cayenne — Graph

°F

Cayenne temperature yesterday

Maximum temperature yesterday: 86 °F (at 1:30 PM)
Minimum temperature yesterday: 77 °F (at 12:00 AM)
Average temperature yesterday: 81 °F

Past Weeks' High & Low Weather Summary

 TemperatureHumidityPressure
High86 °F (Jan 18, 10:30 AM)100% (Jan 18, 4:30 AM)29.98 "Hg (Jan 18, 4:30 AM)
Low72 °F (Jan 22, 7:00 AM)62% (Jan 17, 3:30 PM)29.83 "Hg (Jan 19, 3:30 PM)
Average79 °F84%29.89 "Hg
* Reported Jan 17 12:00 Noon — Feb 1 12:30 PM, Cayenne, Weather by CustomWeather, © 2014

Note: Actual official high and low records may vary slightly from our data, if they occured in-between our weather recording intervals... More about our weather records

Advertising

Cayenne weather history for previous 24 hours

 ConditionsComfort  
Time TempWeatherWind HumidityBarometerVisibility
12:30 PM
Feb 1
82 °FCloudy.12 mph79%29.92 "HgN/A
12:00 PM84 °FPartly sunny.12 mph70%29.95 "HgN/A
11:30 AM84 °FMostly cloudy.15 mph70%29.95 "HgN/A
11:00 AM82 °FPartly sunny.14 mph74%29.95 "HgN/A
10:30 AM82 °FMostly cloudy.16 mph74%29.95 "HgN/A
10:00 AM82 °FPartly sunny.14 mph79%29.95 "HgN/A
9:30 AM81 °FBroken clouds.13 mph84%29.95 "HgN/A
9:00 AM82 °FScattered clouds.10 mph79%29.95 "HgN/A
8:30 AM81 °FScattered clouds.8 mph84%29.92 "HgN/A
8:00 AM77 °FBroken clouds.No wind94%29.92 "HgN/A
7:30 AM75 °FScattered clouds.No wind94%29.92 "HgN/A
7:00 AM75 °FBroken clouds.No wind94%29.89 "HgN/A
6:30 AM77 °FPassing clouds.No wind89%29.89 "HgN/A
6:00 AM77 °FWarm.3 mph89%29.89 "HgN/A
5:30 AM77 °FPassing clouds.3 mph89%29.86 "HgN/A
5:00 AM77 °FPassing clouds.5 mph89%29.86 "HgN/A
4:30 AM77 °FPassing clouds.3 mph89%29.86 "HgN/A
4:00 AM77 °FPartly cloudy.2 mph89%29.86 "HgN/A
3:30 AM77 °FPartly cloudy.2 mph89%29.86 "HgN/A
3:00 AM77 °FPartly cloudy.1 mph89%29.86 "HgN/A
2:30 AM77 °FPartly cloudy.3 mph89%29.89 "HgN/A
2:00 AM79 °FLight rain. Mostly cloudy.3 mph84%29.89 "HgN/A
1:30 AM79 °FPartly cloudy.6 mph84%29.89 "HgN/A
1:00 AM79 °FOvercast.7 mph84%29.89 "HgN/A
12:30 AM79 °FPassing clouds.6 mph84%29.92 "HgN/A
12:00 AM79 °FMostly cloudy.5 mph84%29.92 "HgN/A
11:30 PM
Jan 31
81 °FPartly cloudy.8 mph79%29.92 "HgN/A
11:00 PM81 °FPartly cloudy.9 mph79%29.92 "HgN/A
10:30 PM81 °FOvercast.10 mph79%29.89 "HgN/A
10:00 PM81 °FPassing clouds.7 mph79%29.89 "HgN/A
9:30 PM81 °FPartly cloudy.8 mph79%29.89 "HgN/A
9:00 PM81 °FPartly cloudy.12 mph79%29.89 "HgN/A
8:30 PM79 °FPartly cloudy.8 mph89%29.89 "HgN/A
8:00 PM79 °FPassing clouds.5 mph89%29.86 "HgN/A
7:30 PM79 °FOvercast.3 mph89%29.86 "HgN/A
7:00 PM79 °FPartly cloudy.3 mph89%29.86 "HgN/A
6:30 PM81 °FBroken clouds.9 mph84%29.86 "Hg6 mi
6:00 PM82 °FMostly cloudy.13 mph74%29.86 "HgN/A
5:30 PM82 °FMore clouds than sun.12 mph74%29.83 "HgN/A
5:00 PM82 °FPartly sunny.14 mph74%29.83 "HgN/A
4:30 PM82 °FPartly sunny.14 mph74%29.83 "HgN/A
4:00 PM84 °FPartly sunny.14 mph70%29.83 "HgN/A
3:30 PM84 °FMostly cloudy.12 mph70%29.86 "HgN/A
3:00 PM84 °FPartly sunny.13 mph70%29.86 "HgN/A
2:30 PM86 °FBroken clouds.15 mph66%29.86 "HgN/A
2:00 PM86 °FPartly sunny.14 mph66%29.89 "HgN/A
1:30 PM86 °FBroken clouds.15 mph70%29.89 "HgN/A
1:00 PM84 °FPartly sunny.14 mph70%29.92 "HgN/A
Weather by CustomWeather, © 2014

See weather overviewHow to use our weather pages